Roosevelt Roads, PR

5:09 AM AST on July 21, 2017 (GMT -0400)
Roosevelt Roads Ns

Weather History for TJNR - January, 2013

Change the Weather History Date:

Wednesday, January 30, 2013

  Actual Average Record
Temperature  
Mean Temperature 78 °F -  
Max Temperature 82 °F 80 °F 84 °F (2015)
Min Temperature 75 °F 69 °F 69 °F (2007)
Cooling Degree Days 14    
Growing Degree Days 28 (Base 50)    
Moisture  
Dew Point 70 °F    
Average Humidity 77    
Maximum Humidity 90    
Minimum Humidity 65    
Precipitation  
Precipitation 0.04 in - - ()
Sea Level Pressure  
Sea Level Pressure 30.07 in    
Wind  
Wind Speed 9 mph (ENE)    
Max Wind Speed 15 mph    
Max Gust Speed 21 mph    
Visibility 10 miles    
Events Rain    
Averages and records for this station are not official NWS values.
T = Trace of Precipitation, MM = Missing Value Source: NWS Daily Summary

Daily Weather History Graph

Daily Weather History Graph

Search for Another Location

Airport or City:

Trip Planner

Search our weather history database for the weather conditions in past years. The results will help you decide how hot, cold, wet, or windy it might be!

Date:

Astronomy

Jan. 30, 2013 Rise Set
Actual Time 6:56 AM AST 6:15 PM AST
Civil Twilight 6:33 AM AST 6:38 PM AST
Nautical Twilight 6:07 AM AST 7:04 PM AST
Astronomical Twilight 5:41 AM AST 7:30 PM AST
Moon 9:28 PM AST (1/30) 8:59 AM AST (1/30)
Length of Visible Light 12h 05m
Length of Day
11h 19m
Waning Gibbous, 88% of the Moon is Illuminated
Jan 30
Waning Gibbous
Feb 3
Last Quarter
Feb 10
New
Feb 17
First Quarter
Feb 25
Full

Hourly Weather History & Observations

Time (AST) Temp. Heat Index Dew Point Humidity Pressure Visibility Wind Dir Wind Speed Gust Speed Precip Events Conditions
12:53 AM 75.0 °F - 69.1 °F 82% 30.08 in 10.0 mi ENE 6.9 mph - N/A   Clear
1:53 AM 75.9 °F - 69.1 °F 79% 30.08 in 10.0 mi ENE 6.9 mph - N/A   Partly Cloudy
2:53 AM 75.9 °F - 70.0 °F 82% 30.06 in 10.0 mi East 4.6 mph - N/A   Mostly Cloudy
3:53 AM 75.0 °F - 69.1 °F 82% 30.05 in 10.0 mi East 10.4 mph - N/A   Clear
4:53 AM 75.9 °F - 68.0 °F 76% 30.05 in 10.0 mi East 8.1 mph - N/A   Clear
5:53 AM 75.0 °F - 68.0 °F 79% 30.06 in 10.0 mi East 8.1 mph - N/A   Clear
6:53 AM 75.0 °F - 69.1 °F 82% 30.07 in 10.0 mi East 6.9 mph - 0.00 in   Partly Cloudy
7:53 AM 77.0 °F - 69.1 °F 76% 30.09 in 10.0 mi East 8.1 mph - N/A   Clear
8:53 AM 79.0 °F - 70.0 °F 74% 30.11 in 10.0 mi East 10.4 mph - N/A   Partly Cloudy
9:53 AM 80.1 °F 82.9 °F 69.1 °F 69% 30.12 in 10.0 mi East 10.4 mph - N/A   Clear
10:53 AM 82.0 °F 85.9 °F 70.0 °F 67% 30.12 in 10.0 mi ENE 11.5 mph - N/A   Clear
11:53 AM 82.9 °F 87.0 °F 70.0 °F 65% 30.10 in 10.0 mi ENE 11.5 mph 20.7 mph N/A   Partly Cloudy
12:53 PM 82.0 °F 85.9 °F 70.0 °F 67% 30.08 in 10.0 mi ENE 13.8 mph 20.7 mph N/A   Overcast
1:53 PM 82.0 °F 85.5 °F 69.1 °F 65% 30.06 in 10.0 mi ENE 13.8 mph 20.7 mph N/A   Mostly Cloudy
2:53 PM 81.0 °F 84.1 °F 69.1 °F 67% 30.04 in 10.0 mi ENE 10.4 mph 19.6 mph N/A   Overcast
3:53 PM 81.0 °F 84.4 °F 70.0 °F 69% 30.04 in 10.0 mi ENE 11.5 mph 19.6 mph N/A   Scattered Clouds
4:53 PM 80.1 °F 82.9 °F 69.1 °F 69% 30.04 in 10.0 mi ENE 11.5 mph - N/A   Mostly Cloudy
5:53 PM 78.1 °F - 69.1 °F 74% 30.04 in 10.0 mi ENE 11.5 mph 19.6 mph N/A   Partly Cloudy
6:53 PM 77.0 °F - 69.1 °F 76% 30.05 in 10.0 mi ENE 9.2 mph 19.6 mph N/A   Partly Cloudy
7:53 PM 77.0 °F - 70.0 °F 79% 30.06 in 10.0 mi ENE 11.5 mph 20.7 mph N/A   Partly Cloudy
8:17 PM 77.0 °F - 71.6 °F 83% 30.06 in 10.0 mi ENE 11.5 mph 17.3 mph N/A   Mostly Cloudy
8:32 PM 77.0 °F - 69.8 °F 78% 30.06 in 10.0 mi ENE 11.5 mph - N/A   Mostly Cloudy
8:53 PM 77.0 °F - 71.1 °F 82% 30.07 in 6.0 mi ENE 12.7 mph - 0.01 in Rain Light Rain
9:31 PM - - - N/A% - - North - - N/A   Unknown
9:53 PM 75.9 °F - 71.1 °F 85% 30.07 in 10.0 mi ENE 9.2 mph - 0.02 in   Mostly Cloudy
10:32 PM 75.2 °F - 71.6 °F 89% 30.07 in 9.0 mi ENE 15.0 mph 20.7 mph 0.01 in   Overcast
10:44 PM 75.2 °F - 71.6 °F 89% 30.07 in 10.0 mi East 13.8 mph 19.6 mph 0.01 in   Overcast
10:53 PM 75.0 °F - 72.0 °F 90% 30.07 in 10.0 mi ENE 11.5 mph 20.7 mph 0.01 in   Overcast
11:53 PM 75.9 °F - 72.0 °F 87% 30.07 in 10.0 mi ENE 9.2 mph - N/A   Overcast